Location: Rounton
(54.4000°N, 1.3500°W)
Time: 06:09:18
(UTC+00:00)

SR - Pass Details

Date: 08 December 2021
Orbit: 582 x 872 km, 66.7° (Epoch: 23 January)

Event Time Altitude Azimuth Distance (km) Brightness Sun altitude
Exits shadow 04:57:46 27° 23° (NNE) 1,140 ? -26.9°
Maximum altitude 04:57:59 28° 29° (NNE) 1,137 ? -26.8°
Drops below altitude 10° 05:01:46 10° 89° (E) 1,959 ? -26.3°
Sets 05:04:20 0° 101° (E) 2,895 ? -25.9°
